RH
62 63 64 66 62 60 62 70 72 63 60 64 64 68 69 68 67 65 67 65 63 59 60 62 64 63 64 65 55 31 54 48 54 69 58 57 48 59 71 59 47 53 40 31 31 41 40
63 64 63 62 61 62 66 63 64 65 66 66 69 70 70 72 70 61 63 65 63 64 64 64 65 63 66 72 30 25 36 42 61 72 67 48 48 40 50 54 54 43 41 35 34 44 40
62 64 63 63 61 61 65 65 67 68 68 69 68 67 70 71 73 61 58 58 57 57 61 59 63 59 67 57 27 52 63 60 58 68 71 46 41 40 52 55 49 43 48 43 36 44 45
63 65 65 63 64 61 65 64 66 69 68 69 66 69 70 70 73 70 60 58 62 63 66 63 64 60 76 37 34 33 49 62 55 72 68 43 41 58 50 52 58 64 52 62 42 40 42
64 66 64 63 63 61 66 65 67 69 70 70 69 68 71 73 71 74 65 62 65 63 62 61 64 68 61 37 44 34 34 60 55 62 71 54 51 70 58 78 78 69 74 63 50 39 39
65 66 65 64 64 62 62 68 67 68 68 72 72 73 73 75 73 76 67 68 59 63 63 46 49 75 52 45 38 35 68 74 72 74 82 74 75 84 77 86 87 73 69 48 47 41 41
65 66 65 65 63 63 62 64 67 69 71 74 74 73 72 74 74 74 72 69 67 70 53 56 55 58 49 52 43 53 76 74 84 92 97 81 88 89 76 66 51 42 48 48 37 36 45
65 66 66 64 64 64 64 64 64 68 70 72 73 74 72 71 70 67 65 56 62 60 70 45 46 49 54 71 76 76 80 88 91 96 78 87 89 61 53 56 53 45 44 45 36 41 43
66 67 66 66 65 65 65 65 66 66 68 74 74 76 73 71 70 66 60 65 56 55 93 70 68 72 89 81 84 85 82 85 84 94 71 76 69 57 53 53 56 44 45 40 46 46 43
66 67 68 67 66 66 66 66 66 67 69 74 73 75 75 75 75 60 64 62 61 60 100 94 75 80 90 86 85 82 84 94 86 66 66 69 68 69 80 76 52 62 35 35 48 59 61
65 68 68 68 68 67 67 67 67 67 68 73 73 76 77 76 70 62 64 58 60 71 95 78 85 70 74 84 84 81 83 84 78 70 75 97 82 80 88 81 58 53 42 47 55 59 61
66 67 68 69 68 68 68 68 68 68 70 74 74 74 79 65 71 58 62 60 73 98 97 97 87 88 87 80 82 82 82 78 59 70 83 93 80 82 88 86 86 53 57 56 63 67 94
66 67 68 68 68 69 68 69 68 68 71 75 79 79 79 60 68 62 69 81 99 94 93 95 96 87 87 92 92 86 88 88 87 97 99 100 98 90 85 96 80 68 72 95 97 97 91
66 67 68 68 69 69 69 69 69 68 72 78 81 83 66 55 63 68 79 97 91 82 99 84 80 56 72 64 79 79 89 95 77 83 99 97 96 98 85 91 92 79 78 96 81 90 77
65 67 69 68 69 70 70 70 69 68 76 81 81 68 70 62 64 72 87 97 98 100 94 78 62 64 59 60 65 62 61 80 84 79 97 99 99 93 89 78 78 95 95 60 77 63 83
66 68 69 68 71 71 70 70 70 70 76 80 70 66 67 60 65 82 92 89 92 69 56 51 63 53 57 55 59 56 57 53 55 55 51 69 98 95 91 83 76 87 66 80 95 81 70
66 66 69 68 71 72 71 71 69 68 76 79 79 78 69 64 73 80 100 91 66 48 52 54 51 48 48 53 51 52 54 53 45 45 43 53 71 87 71 89 86 93 92 72 62 63 87
66 65 68 69 71 73 70 71 69 68 76 74 82 92 68 69 92 88 98 82 73 51 48 47 50 48 47 49 51 51 56 54 43 44 53 56 71 84 71 56 52 56 57 55 91 68 79
66 64 67 69 71 73 71 71 70 68 71 82 75 69 73 76 97 98 72 58 56 50 49 47 48 49 48 50 58 53 56 58 51 52 55 53 83 93 82 72 61 73 59 55 64 82 93
66 65 66 69 70 72 72 71 70 68 68 84 72 90 86 68 64 70 62 57 56 62 52 45 45 45 49 52 48 57 59 59 58 52 62 58 59 70 86 82 77 85 65 60 87 97 78
67 65 64 67 69 70 73 71 70 72 73 81 69 75 73 94 67 65 60 56 54 54 53 48 50 46 46 55 50 52 54 60 54 59 54 59 74 68 61 54 63 76 70 68 91 82 83
68 65 63 65 66 69 72 71 69 69 72 69 78 85 72 75 60 60 69 59 58 53 57 51 54 46 46 49 47 50 50 53 57 57 57 60 95 92 92 61 64 79 65 67 72 72 73
67 67 62 64 64 66 70 71 69 66 66 70 71 68 78 70 61 65 64 62 59 59 58 51 54 52 52 55 52 50 47 44 48 54 59 64 89 95 85 70 70 86 73 69 68 65 68
69 67 62 64 62 64 69 74 68 65 66 66 81 91 78 69 62 58 60 62 64 61 70 52 58 59 60 51 52 49 51 49 50 56 49 62 77 90 92 83 98 67 56 54 59 57 57
73 68 65 64 63 64 68 73 67 66 62 69 69 79 90 78 50 45 56 63 60 60 71 63 60 59 53 64 66 65 65 58 59 58 56 54 62 89 94 83 60 62 55 58 64 65 50
74 70 68 66 67 65 68 70 72 67 62 69 71 69 84 84 60 47 58 65 78 78 70 68 73 65 70 77 70 75 83 62 73 78 65 59 63 80 89 89 86 70 54 52 54 79 60
76 73 70 70 69 69 68 70 70 70 66 73 74 69 74 81 55 58 64 80 80 84 85 78 79 80 71 84 91 90 72 54 66 62 82 77 79 92 87 84 69 60 57 51 87 85 66
82 78 75 73 70 70 70 70 71 70 70 75 76 72 76 72 61 51 49 57 61 79 97 88 86 78 87 84 87 74 65 60 64 57 60 63 83 86 76 91 86 55 58 65 73 61 60
85 82 81 79 77 71 72 70 71 71 70 74 86 65 66 89 71 58 56 53 55 57 91 93 98 83 74 82 76 67 68 72 64 65 59 68 59 66 64 72 52 49 59 55 60 62 66
Wind_Speed
16 17 19 20 22 22 23 27 20 23 23 25 25 23 21 17 16 16 14 12 9 10 8 6 6 4 3 8 12 17 6 13 17 17 18 14 16 17 13 12 12 17 13 15 4 5 4
16 18 20 21 21 23 24 24 24 24 25 25 27 25 23 19 15 11 11 7 8 9 9 3 6 1 6 13 12 12 5 3 13 18 19 17 11 15 9 7 14 10 15 7 6 4 1
16 18 20 21 22 23 23 23 23 24 25 27 25 25 24 22 13 11 10 8 9 6 7 4 4 5 9 14 7 8 6 5 5 19 17 17 16 15 3 8 10 2 10 10 7 8 3
16 18 19 20 21 22 22 23 23 25 26 26 27 26 23 20 13 9 7 7 7 6 8 6 3 5 7 8 13 16 6 3 7 10 16 15 16 2 5 4 5 4 4 7 8 11 7
16 18 19 20 21 22 21 22 23 24 26 26 27 27 25 23 16 7 4 5 8 8 8 6 4 5 8 4 11 12 10 3 6 11 11 14 13 3 5 5 7 8 7 13 11 9 5
15 17 18 20 21 22 22 22 23 24 26 26 27 25 24 25 10 1 3 6 7 3 5 5 2 3 7 9 7 12 5 5 8 10 11 11 5 7 7 8 12 16 14 13 15 18 14
14 16 18 20 21 22 23 23 23 24 24 25 26 24 20 21 14 6 2 4 2 2 3 3 3 10 9 12 2 7 4 3 4 11 9 13 7 17 22 14 11 12 13 14 14 11 18
14 16 18 19 20 21 22 23 23 22 23 24 23 22 19 15 11 7 6 5 7 2 4 3 5 6 3 5 3 8 11 8 7 8 15 10 10 11 14 14 16 7 12 17 3 12 10
14 15 17 19 20 21 22 22 22 22 22 23 23 22 18 14 14 3 8 8 4 6 2 5 4 6 5 4 4 7 11 8 10 18 15 9 4 6 11 12 13 14 12 13 6 6 4
13 15 16 18 20 21 22 22 22 22 21 21 21 21 18 18 7 3 3 7 5 3 1 6 4 2 4 6 3 5 2 4 4 14 9 5 4 11 6 9 16 11 9 8 10 6 4
13 14 16 18 19 21 22 22 23 21 21 21 21 20 17 14 8 2 1 3 2 3 3 11 4 4 2 3 7 3 3 4 4 10 5 3 3 8 5 8 12 4 7 8 8 7 1
11 13 15 17 19 20 22 22 23 23 22 22 21 16 16 6 4 1 4 5 3 1 7 6 5 6 4 11 4 4 6 5 3 10 14 5 2 2 2 4 6 7 8 9 2 1 2
10 13 15 17 19 21 22 23 24 24 24 23 24 14 7 5 5 4 4 2 1 7 0 8 5 8 6 5 6 7 7 5 3 5 3 3 2 5 2 6 2 6 9 4 2 2 5
10 12 15 17 19 21 23 24 24 24 24 23 20 10 3 5 2 3 2 2 9 2 3 3 5 5 5 3 5 10 5 6 8 7 4 3 3 2 3 1 6 3 2 3 6 6 5
9 12 14 16 18 21 24 25 26 26 24 24 16 3 2 2 1 2 5 7 3 1 3 5 5 3 3 6 4 2 10 6 3 2 3 5 2 1 4 2 3 3 3 2 3 3 5
8 11 14 15 18 20 23 25 27 28 27 20 3 2 1 2 2 3 2 4 1 4 6 8 4 2 6 4 2 3 4 1 8 10 9 6 4 2 3 2 4 1 3 2 1 2 3
7 10 13 16 17 19 22 26 28 29 29 19 3 3 3 3 1 2 4 2 1 2 3 5 6 3 4 3 2 3 5 1 1 3 6 4 3 5 9 7 8 4 1 3 2 1 1
5 10 12 15 16 18 21 25 27 29 28 7 3 2 3 5 3 2 1 3 1 2 1 1 3 4 3 2 1 3 5 6 5 4 2 4 4 3 2 2 2 3 3 7 3 3 2
5 8 11 13 16 18 20 22 25 27 24 6 5 3 3 2 1 1 2 3 3 3 2 3 1 3 3 1 1 2 4 1 2 5 4 3 2 3 2 1 2 2 3 3 6 4 2
5 6 10 12 14 17 18 21 24 28 24 6 4 4 4 2 1 5 3 3 3 3 3 2 0 3 3 3 2 4 5 1 2 4 5 5 1 1 2 3 4 4 6 6 5 3 3
6 7 8 11 14 16 17 20 24 27 28 4 3 3 3 4 3 7 4 7 6 2 3 2 3 5 5 3 3 4 7 5 4 3 2 3 1 3 2 2 2 4 5 7 6 5 5
5 6 7 8 11 14 15 16 20 25 29 3 5 6 6 6 8 7 2 5 7 2 2 3 3 1 2 3 3 2 4 5 5 5 2 2 1 3 3 1 3 5 7 8 8 9 10
6 6 5 7 9 12 13 13 17 20 17 4 5 2 2 7 6 4 3 7 7 5 3 4 7 2 5 3 5 5 6 4 3 5 5 5 4 2 1 2 4 7 12 13 7 7 10
8 7 6 6 8 9 11 11 11 13 14 1 1 3 2 5 7 8 11 10 11 11 7 3 2 5 2 2 2 3 2 3 4 2 2 4 6 2 2 2 1 5 3 3 14 9 9
11 9 7 6 8 8 11 10 7 8 10 3 2 2 3 5 7 11 11 11 10 10 6 8 2 4 3 2 1 3 1 3 3 1 5 1 4 3 2 4 7 6 4 3 7 9 12
12 10 9 8 8 8 9 10 8 6 5 4 2 2 2 2 0 9 8 9 8 7 6 4 1 2 2 2 2 4 4 4 4 5 3 1 2 3 2 2 3 3 4 1 2 2 4
15 13 11 11 10 8 7 9 9 7 5 3 2 1 3 4 5 6 4 4 6 6 3 5 5 4 3 2 2 2 2 3 4 5 5 3 3 4 4 2 6 5 6 1 2 3 5
16 15 15 14 11 10 8 9 9 9 7 2 3 4 2 4 9 7 10 10 8 4 4 5 2 2 3 3 4 3 2 5 3 3 7 7 5 4 4 3 7 4 2 2 3 5 5
16 15 15 13 13 11 9 8 9 10 11 7 3 4 3 4 7 12 13 15 14 8 2 5 8 8 5 4 4 3 4 2 4 3 3 4 5 5 6 6 3 5 4 4 3 3 3
Wind_Direction
353 352 353 354 351 351 348 352 348 345 338 336 331 334 326 317 315 313 311 292 294 302 302 330 294 323 237 220 248 291 3 201 193 199 203 189 203 189 196 208 202 221 261 227 241 73 308
349 352 354 356 354 353 355 349 349 346 341 336 337 333 324 310 305 306 312 318 297 302 315 322 305 282 234 253 261 266 250 174 222 193 207 198 211 202 211 194 220 214 240 272 160 135 268
352 353 357 354 354 355 356 347 352 346 344 343 342 344 335 331 299 308 295 308 317 292 302 313 285 245 265 240 293 64 67 343 307 212 203 211 222 205 172 214 251 333 201 268 211 138 135
352 353 356 356 354 356 355 351 349 348 349 347 349 344 343 337 314 286 304 305 317 309 295 279 227 244 256 263 250 264 176 344 299 272 229 201 219 313 186 284 147 186 169 200 199 179 159
353 353 355 355 355 355 357 351 351 349 350 352 351 350 348 339 325 278 255 295 290 281 273 263 232 217 265 234 227 251 249 208 263 265 226 241 205 187 207 195 185 194 187 209 199 189 191
351 354 354 352 357 356 353 351 351 352 352 353 353 357 356 357 348 193 220 262 302 272 230 152 192 186 295 292 276 206 104 176 237 237 200 220 134 186 192 184 192 184 207 208 213 196 196
352 352 352 355 356 354 353 351 352 354 351 355 352 358 2 11 38 56 270 229 212 153 268 310 342 286 309 340 135 181 77 128 286 193 179 173 156 198 192 192 203 207 193 235 201 177 189
351 353 353 355 354 354 355 352 352 351 352 353 354 356 354 339 358 334 301 44 44 343 313 0 319 299 359 3 281 129 144 194 202 138 159 148 203 194 186 193 229 242 244 217 247 151 189
347 354 353 353 354 353 352 355 350 351 354 352 351 349 351 326 327 341 56 34 12 2 16 332 335 352 47 19 271 114 181 212 164 150 156 146 130 179 196 207 222 231 250 187 153 121 318
346 353 350 355 353 352 352 350 352 349 351 349 347 345 342 326 277 305 58 352 334 355 297 359 5 61 179 221 57 14 78 313 235 152 141 136 132 170 171 241 213 216 232 170 125 130 219
348 349 350 354 352 350 351 349 349 350 346 344 346 341 331 328 310 16 288 328 269 221 67 335 328 181 249 106 155 352 11 39 190 96 106 45 130 167 160 267 231 232 115 91 125 199 91
342 347 349 351 352 349 349 349 348 348 345 341 342 336 330 313 246 26 311 334 280 213 43 342 312 360 31 35 57 14 81 70 69 74 58 48 45 68 161 303 318 235 107 84 77 194 244
339 345 347 350 351 349 348 349 348 347 344 340 335 331 313 314 333 345 321 295 258 45 349 344 329 80 66 62 35 81 82 77 116 108 80 136 34 336 97 175 210 231 122 121 164 203 229
334 343 346 347 351 348 347 349 346 344 341 338 331 329 235 256 298 303 258 281 55 55 358 257 292 58 79 143 64 103 94 55 40 70 86 69 2 311 344 129 184 217 171 166 195 184 161
332 341 345 345 349 350 348 347 347 344 341 336 316 171 230 85 314 240 259 50 12 294 257 316 317 18 87 87 120 153 94 100 109 194 148 163 143 156 261 175 275 147 214 351 313 232 102
332 340 346 342 348 353 347 349 347 345 343 339 310 272 192 343 156 244 46 97 220 208 305 324 342 3 109 82 105 131 88 74 147 200 231 156 115 129 144 239 349 123 221 145 319 153 220
330 337 343 343 348 351 352 350 350 347 342 321 259 309 146 111 182 53 82 92 226 360 341 342 349 349 78 100 354 65 51 129 31 187 243 172 109 172 161 201 165 160 229 275 275 261 163
324 334 344 343 345 352 355 353 351 349 346 346 299 334 153 140 22 118 177 202 295 315 201 292 301 340 356 44 120 74 90 48 352 310 98 15 95 161 138 44 328 313 185 181 158 192 112
310 331 336 344 346 349 355 356 348 349 356 323 324 296 192 158 15 90 209 205 284 322 28 330 134 339 318 50 68 81 94 185 29 32 34 160 153 109 167 180 176 226 244 302 78 24 236
292 315 334 343 345 350 352 354 352 346 348 326 317 334 348 236 295 326 293 231 234 171 277 295 90 260 219 191 257 145 125 32 342 72 340 331 149 18 147 135 118 189 198 194 115 133 198
282 311 336 343 351 350 353 354 356 346 341 324 2 60 14 327 22 331 308 309 283 238 207 256 210 259 231 189 196 178 114 147 189 169 252 339 160 31 32 76 143 195 210 201 169 218 160
258 286 320 333 344 348 350 355 358 355 338 89 12 350 353 293 290 300 263 297 300 296 229 219 248 202 263 285 30 89 172 195 178 175 214 107 120 73 299 140 279 260 249 221 203 217 261
230 262 297 315 335 342 341 352 1 7 354 22 354 315 287 290 312 307 350 352 343 339 182 257 321 310 230 61 22 346 33 24 36 155 209 155 127 121 256 186 293 287 223 211 195 190 199
230 247 264 296 312 332 335 347 2 9 9 1 80 287 305 301 328 318 342 323 307 302 310 328 282 280 72 204 225 227 114 119 138 68 183 187 141 131 227 175 286 222 74 203 205 200 211
226 238 250 270 295 317 327 335 350 358 3 344 87 24 346 288 320 298 334 317 306 286 246 266 125 6 172 246 169 129 153 206 173 91 209 322 148 184 183 209 273 150 179 175 157 233 212
226 235 243 253 269 292 305 313 320 339 353 316 84 291 200 281 5 348 322 295 290 299 292 204 98 278 355 246 178 194 196 228 172 161 287 226 354 142 70 266 256 110 149 17 161 164 20
226 231 235 238 247 256 281 301 303 310 314 303 292 41 282 252 259 346 299 320 330 327 277 286 163 193 231 233 174 220 220 177 198 212 160 189 194 193 230 253 296 138 128 57 216 135 88
223 227 234 238 241 239 256 283 295 295 282 250 292 175 213 274 294 274 291 290 301 287 294 337 258 262 170 229 178 216 215 203 277 216 165 181 182 185 201 196 261 125 83 195 132 104 92
224 229 233 236 243 244 243 261 273 277 269 265 246 212 225 239 269 298 277 272 268 273 215 287 313 300 211 200 217 172 219 137 237 229 145 197 201 180 187 217 161 183 117 124 129 108 106